Starlink 34713

operational
NORAD ID: 64906 Int'l Des: 2025-157 Owner: SPXS Country: US Constellation: starlink
LEOCIRCULAR

About Starlink 34713

Description loading...

Live Position

Loading 3D Globe...

Upcoming Passes

Altitude History

Altitude vs Time

uPlot chart will show altitude changes over time

Two-Line Element Set

1 64906U 25157C 26062.15528940 .00025757 00000-0 87850-3 0 9992
2 64906 53.1598 16.0035 0001068 106.6384 253.4734 15.30209857 35079
Epoch: Mar 3, 2026 • Age: 17 hours

Current Status

Altitude 494.3 km
Velocity 7.62 km/s
Sub-Earth Point -53.27°S, 142.81°W
Launch Date Jul 26, 2025
Age 0.6 years
Type internet

Technical Details

Classification Payload
Mass 575.00 kg
Dry Mass 530.00 kg
Total Mass 575.00 kg
Length 0.30 m
Diameter 4.10 m
Span 29.00 m
Shape Box + pan
Manufacturer SPXS
Bus Type Starlink V2MO
Phase Status In Orbit
Owner/State SPXS/US

Large Constellations

Loading constellations...